Skip Page Navigation
NASA JPL Caltech
NASA Logo - Jet Propulsion Laboratory + View the NASA Portal
+ Center for Near-Earth Object Studies
JPL Home Earth Solar System Stars & Galaxies Technology
JPL Solar System Dynamics
BODIES ORBITS EPHEMERIDES TOOLS PHYSICAL DATA DISCOVERY FAQ SITE MAP
JPL Small-Body Database Browser
Search: [ help ]  
216131 (2006 SE97)
Classification: Main-belt Asteroid          SPK-ID: 2216131
Ephemeris | Orbit Diagram | Orbital Elements | Mission Design | Physical Parameters | Discovery Circumstances | Close-Approach Data ]

[ show orbit diagram ]
Orbital Elements at Epoch 2459200.5 (2020-Dec-17.0) TDB
Reference: JPL 13 (heliocentric ecliptic J2000)
 Element Value Uncertainty (1-sigma)   Units 
e .03793954088390811 4.9387e-08  
a 2.716065153481059 2.2911e-08 au
q 2.613018888547206 1.3079e-07 au
i 2.704497443793803 6.4412e-06 deg
node 198.8542377138558 0.0001282 deg
peri 23.98998135832768 0.00016093 deg
M 221.9867806825529 9.9086e-05 deg
tp 2459827.296969486646
(2022-Sep-04.79696949)
0.00045152 TDB
period 1634.965912186843
4.48
2.0688e-05
5.664e-08
d
yr
n .2201880768990978 2.7861e-09 deg/d
Q 2.819111418414912 2.3781e-08 au
  Orbit Determination Parameters
   # obs. used (total)      206  
   data-arc span      7005 days (19.18 yr)  
   first obs. used      2001-09-19  
   last obs. used      2020-11-23  
   planetary ephem.      DE441  
   SB-pert. ephem.      SB441-N16  
   condition code      0  
   norm. resid. RMS      .57022  
   source      ORB  
   producer      Otto Matic  
   solution date      2021-Apr-13 23:53:33  

Additional Information
 Earth MOID = 1.60296 au 
 Jupiter MOID = 2.1457 au 
 T_jup = 3.358 
[ show covariance matrix ]

Ephemeris | Orbit Diagram | Orbital Elements | Mission Design | Physical Parameters | Discovery Circumstances | Close-Approach Data ]

Physical Parameter Table
Parameter Symbol Value Units Sigma Reference Notes
absolute magnitude H 16.87   n/a MPCxxxxx  

216131 (2006 SE97)          Discovered 2006-Sep-18 by Spacewatch at Kitt Peak
Reference: 20090607/Numbers.arcLast Updated: 2009-06-08

[ show close-approach data ]
Ephemeris | Orbit Diagram | Orbital Elements | Mission Design | Physical Parameters | Discovery Circumstances | Close-Approach Data ]
ABOUT SSD CREDITS/AWARDS PRIVACY/COPYRIGHT GLOSSARY LINKS
FirstGov 2021-Jun-21 17:10 UT
(server date/time)  
NASA Home Page
Site Manager:   Ryan S. Park
Webmaster  Alan B. Chamberlin